[[{"header":{"parameterUnit":"m.s-1","parameterCategory":1,"la1":30.2991,"la2":30.254,"lo1":-89.0895,"lo2":-89.0444,"dy":0.0017,"dx":0.0017,"nx":28,"ny":28,"refTime":"2025-12-24T09:00:00:Z","depth":0,"parameterNumber":2,"parameterNumberName":"U-component_of_WINDS"},"data":[0,0,0,0,0,0,0,0,0,0,0,0,0,0,0,0,0,0,0,0,0,0,0,0,0,0,0,0,0,0,0,0,0,0,0,0,0,0,0,0,0,0,0,0,0,0,0,0,0,0,0,0,0,0,0,0,0,0,0.4981,0.4982,0,0.5041,0.5042,0.5042,0.5062,0.5062,0.5061,0.5061,0.5122,0.5124,0.5126,0,0,0,0,0,0,0,0,0,0,0,0,0,0.4884,0.4886,0.4981,0.4982,0.4983,0.5041,0.5042,0.5043,0.5062,0.5062,0.5061,0.5061,0.5122,0.5124,0.5126,0,0,0,0,0,0,0,0,0,0,0,0,0,0.4933,0.4886,0.4981,0.4999,0.5001,0.5041,0.5042,0.5043,0.5062,0.5062,0.5061,0.5061,0.5121,0.5124,0.5127,0.5152,0,0,0.5135,0.5136,0,0,0,0,0,0,0,0,0.4931,0.4937,0.4996,0.4998,0.5001,0.5044,0.503,0.5079,0.5062,0.5039,0.5061,0.5061,0.5097,0.5101,0.5113,0.5155,0.5158,0.5135,0.5137,0.5138,0.5139,0,0,0,0,0,0,0,0.4927,0.4934,0.5005,0.4997,0.5,0.5005,0.5011,0.504,0.5069,0.5041,0.5043,0.5049,0.5098,0.5111,0.5115,0.5158,0.5135,0.5138,0.514,0.5141,0.5225,0.5226,0,0,0,0,0,0,0.4921,0.4931,0.5003,0.5007,0.4964,0.5007,0.5014,0.503,0.5069,0.5075,0.505,0.505,0.5106,0.5112,0.5117,0.515,0.5138,0.5141,0.5143,0.5225,0.5225,0.5226,0,0,0,0,0,0,0.4918,0.4927,0.5,0.4969,0.4979,0.5009,0.5027,0.5032,0.5045,0.5076,0.5081,0.5057,0.5106,0.5113,0.5144,0.5153,0.5142,0.5145,0.5224,0.5225,0.5226,0.5216,0,0,0,0,0,0,0.4915,0.4926,0.4935,0.497,0.4981,0.5025,0.5027,0.5033,0.5049,0.505,0.5084,0.5089,0.5106,0.5139,0.5146,0.5156,0.5147,0.5223,0.5224,0.5225,0.5216,0.5217,0.5217,0,0,0,0,0,0.4912,0.493,0.4936,0.4944,0.4993,0.5026,0.5032,0.5051,0.505,0.506,0.508,0.5088,0.5151,0.5142,0.515,0.5161,0.5223,0.5224,0.5225,0.5216,0.5216,0.5217,0,0,0,0,0,0,0.4896,0.4935,0.4942,0.4971,0.4995,0.5029,0.5042,0.5052,0.5076,0.5076,0.5099,0.5106,0.5135,0.5151,0.5141,0.5189,0.5187,0.519,0.5177,0.5178,0.5179,0.5174,0.5149,0,0,0,0,0,0.4896,0.4919,0.4952,0.4975,0.4986,0.5012,0.5027,0.504,0.5065,0.5076,0.5098,0.5123,0.5148,0.5164,0.5189,0.5219,0.5227,0.523,0.5231,0.5231,0.5234,0.5252,0.5254,0.523,0.523,0.523,0,0,0.4896,0.492,0.4933,0.4972,0.4992,0.5016,0.5021,0.5045,0.5063,0.5079,0.5109,0.5127,0.5156,0.5186,0.5201,0.5201,0.5242,0.5233,0.5233,0.5235,0.5253,0.5255,0.5257,0.5231,0.5231,0.5231,0,0,0.4908,0.4928,0.495,0.497,0.5001,0.5018,0.5023,0.5056,0.5069,0.5099,0.5113,0.5134,0.5177,0.5198,0.5214,0.5235,0.5244,0.5243,0.5246,0.5264,0.5265,0.5267,0.5275,0.5278,0.5245,0.5245,0.5245,0,0.4904,0.494,0.496,0.4984,0.5001,0.5018,0.5041,0.5059,0.5096,0.5108,0.5108,0.5163,0.5183,0.5219,0.5224,0.5237,0.5244,0.5239,0.5263,0.5265,0.5267,0.5275,0.5278,0.5245,0.5245,0.5245,0.5245,0,0.4934,0.4959,0.4973,0.5008,0.5027,0.505,0.5075,0.5092,0.5103,0.5121,0.5152,0.5178,0.5209,0.5218,0.5229,0.5256,0.5255,0.5259,0.5258,0.5269,0.5277,0.528,0.5244,0.5244,0.5244,0.5244,0,0,0.4936,0.4984,0.4989,0.5006,0.5041,0.5061,0.5085,0.5116,0.513,0.5155,0.5177,0.5214,0.5217,0.5236,0.525,0.5265,0.5281,0.5267,0.5268,0.5269,0.5313,0.531,0.5313,0.5287,0.5288,0.5288,0.531,0,0.4953,0.4997,0.5017,0.5053,0.5076,0.5093,0.5115,0.5139,0.5156,0.5179,0.5199,0.5224,0.5227,0.5239,0.5254,0.5275,0.529,0.5274,0.5307,0.5308,0.5299,0.5317,0.5314,0.5333,0.5314,0.5314,0.5314,0,0.4978,0.5004,0.5042,0.5076,0.5086,0.5105,0.5136,0.5157,0.5186,0.5197,0.5218,0.5232,0.5259,0.5256,0.5294,0.5283,0.5298,0.5311,0.5312,0.5316,0.5312,0.5321,0.534,0.5343,0.532,0.5319,0.5319,0,0.4977,0.5021,0.505,0.5064,0.5104,0.5117,0.5134,0.5162,0.518,0.5206,0.5218,0.5247,0.5263,0.5286,0.5307,0.5303,0.5343,0.5342,0.5354,0.5353,0.5361,0.536,0.5383,0.5371,0.5371,0.5371,0.5371,0,0.4993,0.5016,0.505,0.5067,0.5094,0.5116,0.5142,0.516,0.5186,0.5208,0.5224,0.5244,0.5271,0.5295,0.5312,0.5341,0.5348,0.5359,0.5363,0.5357,0.5356,0.5367,0.5366,0.5372,0.5372,0.5371,0.5371,0,0.4996,0.5019,0.5052,0.5087,0.5097,0.5115,0.5145,0.5163,0.5182,0.521,0.5218,0.5247,0.5276,0.53,0.5338,0.535,0.538,0.5385,0.5371,0.5373,0.5383,0.5382,0.5413,0.5419,0.5403,0.5404,0.5404,0,0.5004,0.5022,0.506,0.5076,0.5093,0.5119,0.5137,0.5161,0.5179,0.5214,0.5228,0.5258,0.5284,0.533,0.5355,0.5384,0.539,0.5399,0.5394,0.5388,0.539,0.5389,0.5391,0.5399,0.5399,0.5399,0.5399,0,0.5018,0.5029,0.5054,0.5084,0.5106,0.513,0.5155,0.5168,0.5196,0.5216,0.5246,0.5266,0.5306,0.5336,0.5368,0.5387,0.5398,0.5401,0.5405,0.5399,0.539,0.5395,0.5372,0.54,0.5399,0.5399,0.5399,0.5399,0.5024,0.5041,0.507,0.5099,0.512,0.5144,0.5163,0.5184,0.521,0.5244,0.5257,0.5288,0.5317,0.5362,0.538,0.5405,0.5407,0.5413,0.5414,0.5415,0.5415,0.5386,0.5411,0.5411,0.5411,0.5412,0.5412,0,0.5038,0.5058,0.5084,0.5119,0.5142,0.5151,0.5179,0.5198,0.5225,0.5251,0.5276,0.5312,0.5341,0.5369,0.5401,0.5415,0.5421,0.5423,0.5422,0.5426,0.5412,0.5405,0.5417,0.5417,0.5417,0.5417,0.5417,0.5417,0.5048,0.5078,0.5093,0.5134,0.5154,0.5184,0.52,0.5222,0.5244,0.5282,0.5307,0.5325,0.5353,0.5386,0.5414,0.5422,0.5433,0.5433,0.5441,0.5428,0.5427,0.5426,0.542,0.5435,0.5435,0.5453,0.5454,0.5454]},{"header":{"parameterUnit":"m.s-1","parameterCategory":1,"la1":30.2991,"la2":30.254,"lo1":-89.0895,"lo2":-89.0444,"dy":0.0017,"dx":0.0017,"nx":28,"ny":28,"refTime":"2025-12-24T09:00:00:Z","depth":0,"parameterNumber":3,"parameterNumberName":"V-component_of_WINDS"},"data":[0,0,0,0,0,0,0,0,0,0,0,0,0,0,0,0,0,0,0,0,0,0,0,0,0,0,0,0,0,0,0,0,0,0,0,0,0,0,0,0,0,0,0,0,0,0,0,0,0,0,0,0,0,0,0,0,0,0,-0.9472,-0.9473,0,-0.9542,-0.9543,-0.9544,-0.9549,-0.9548,-0.9548,-0.9547,-0.962,-0.9623,-0.9626,0,0,0,0,0,0,0,0,0,0,0,0,0,-0.9344,-0.9346,-0.9472,-0.9473,-0.9474,-0.9542,-0.9543,-0.9544,-0.9549,-0.9548,-0.9547,-0.9546,-0.9619,-0.9623,-0.9626,0,0,0,0,0,0,0,0,0,0,0,0,0,-0.9405,-0.9347,-0.9472,-0.9484,-0.9486,-0.9542,-0.9543,-0.9545,-0.9549,-0.9548,-0.9547,-0.9546,-0.9618,-0.9622,-0.9626,-0.9675,0,0,-0.9639,-0.964,0,0,0,0,0,0,0,0,-0.9402,-0.941,-0.9482,-0.9484,-0.9486,-0.9536,-0.9525,-0.9588,-0.955,-0.9525,-0.9547,-0.9545,-0.9593,-0.9599,-0.9615,-0.9678,-0.9681,-0.9639,-0.9641,-0.9643,-0.9644,0,0,0,0,0,0,0,-0.9398,-0.9407,-0.95,-0.9483,-0.9485,-0.9487,-0.9495,-0.9537,-0.9565,-0.9528,-0.9528,-0.9536,-0.9594,-0.9611,-0.9617,-0.9682,-0.9639,-0.9642,-0.9645,-0.9646,-0.979,-0.9792,0,0,0,0,0,0,-0.9391,-0.9403,-0.9498,-0.9502,-0.944,-0.9491,-0.9499,-0.9521,-0.9565,-0.957,-0.9537,-0.9536,-0.9605,-0.9612,-0.9619,-0.968,-0.9643,-0.9647,-0.9649,-0.9789,-0.9791,-0.9792,0,0,0,0,0,0,-0.9388,-0.9399,-0.9495,-0.9453,-0.9465,-0.9494,-0.9519,-0.9523,-0.954,-0.9572,-0.9577,-0.9549,-0.9604,-0.9614,-0.9661,-0.9683,-0.9649,-0.9652,-0.9787,-0.979,-0.9792,-0.9801,0,0,0,0,0,0,-0.9384,-0.9398,-0.9416,-0.9453,-0.9467,-0.9535,-0.952,-0.9525,-0.9547,-0.9546,-0.9585,-0.959,-0.9604,-0.9655,-0.9665,-0.9688,-0.9656,-0.9786,-0.9788,-0.9791,-0.9799,-0.9803,-0.9807,0,0,0,0,0,-0.938,-0.9416,-0.9417,-0.9428,-0.9491,-0.9536,-0.9544,-0.9559,-0.9548,-0.9567,-0.9588,-0.9589,-0.9679,-0.966,-0.9671,-0.9695,-0.9784,-0.9788,-0.9791,-0.9797,-0.9802,-0.9807,0,0,0,0,0,0,-0.9381,-0.9421,-0.9423,-0.9472,-0.95,-0.9537,-0.9561,-0.9564,-0.9596,-0.9594,-0.9612,-0.9621,-0.9668,-0.9686,-0.9665,-0.9745,-0.973,-0.9736,-0.9731,-0.9737,-0.9741,-0.9735,-0.9659,0,0,0,0,0,-0.9387,-0.9419,-0.9453,-0.9494,-0.9508,-0.9532,-0.9552,-0.9561,-0.9592,-0.9604,-0.9628,-0.9658,-0.9693,-0.9716,-0.975,-0.9802,-0.9811,-0.9824,-0.9828,-0.9831,-0.9836,-0.9866,-0.9872,-0.9803,-0.9803,-0.9803,0,0,-0.9399,-0.9425,-0.9445,-0.9494,-0.9518,-0.9552,-0.9542,-0.9578,-0.9604,-0.961,-0.9656,-0.9675,-0.971,-0.976,-0.9783,-0.9776,-0.9857,-0.9835,-0.9837,-0.984,-0.987,-0.9876,-0.9882,-0.9805,-0.9804,-0.9804,0,0,-0.944,-0.9463,-0.9499,-0.9523,-0.9558,-0.9574,-0.9583,-0.9619,-0.9632,-0.9679,-0.9684,-0.9715,-0.9775,-0.98,-0.982,-0.9872,-0.9874,-0.9882,-0.9903,-0.9932,-0.9938,-0.9943,-0.9962,-0.9969,-0.9887,-0.9887,-0.9887,0,-0.9452,-0.9503,-0.9518,-0.9555,-0.9577,-0.9583,-0.9621,-0.9643,-0.9688,-0.9703,-0.9695,-0.9771,-0.9795,-0.9852,-0.9864,-0.988,-0.9892,-0.9878,-0.9936,-0.9941,-0.9946,-0.9964,-0.9971,-0.9888,-0.9888,-0.9888,-0.9888,0,-0.9516,-0.9552,-0.9577,-0.962,-0.9645,-0.9682,-0.9703,-0.9727,-0.9734,-0.9752,-0.98,-0.9829,-0.9869,-0.9883,-0.9891,-0.9941,-0.9936,-0.9932,-0.9917,-0.9953,-0.9971,-0.9978,-0.9889,-0.9889,-0.9889,-0.9888,0,0,-0.9559,-0.961,-0.9619,-0.9639,-0.9679,-0.9708,-0.9746,-0.9785,-0.9805,-0.9836,-0.9869,-0.992,-0.9917,-0.994,-0.995,-0.9976,-1.0016,-0.9968,-0.9969,-0.9977,-1.0075,-1.0079,-1.0087,-1.0018,-1.0019,-1.002,-1.0072,0,-0.9605,-0.9672,-0.9687,-0.9745,-0.9779,-0.9786,-0.9819,-0.9847,-0.9865,-0.9897,-0.9916,-0.9952,-0.9944,-0.9959,-0.9984,-1.0006,-1.0036,-1.0002,-1.0049,-1.0051,-1.0041,-1.0096,-1.0099,-1.0147,-1.0079,-1.0081,-1.0082,0,-0.9667,-0.9699,-0.9761,-0.9797,-0.9812,-0.9841,-0.9879,-0.9909,-0.9942,-0.9953,-0.998,-0.9988,-1.0029,-1.0012,-1.0069,-1.0046,-1.0066,-1.008,-1.0082,-1.0088,-1.0069,-1.0103,-1.0163,-1.017,-1.0093,-1.0092,-1.0091,0,-0.9693,-0.9752,-0.9797,-0.9814,-0.9857,-0.9878,-0.9897,-0.9929,-0.9952,-0.9985,-1.0001,-1.0039,-1.0059,-1.0089,-1.0108,-1.0094,-1.0164,-1.0148,-1.0175,-1.0174,-1.0189,-1.0188,-1.0254,-1.0202,-1.0202,-1.0201,-1.0201,0,-0.9743,-0.978,-0.9809,-0.9837,-0.9879,-0.9897,-0.9939,-0.9958,-0.9987,-1.0019,-1.0027,-1.0057,-1.008,-1.0113,-1.0128,-1.0174,-1.0183,-1.0194,-1.0197,-1.0193,-1.0192,-1.0207,-1.0205,-1.0203,-1.0203,-1.0203,-1.0202,0,-0.9779,-0.98,-0.9849,-0.9886,-0.9897,-0.9927,-0.9959,-0.9987,-1.0004,-1.0045,-1.0056,-1.0084,-1.0124,-1.0145,-1.0195,-1.0206,-1.0257,-1.0259,-1.0246,-1.0248,-1.0273,-1.0271,-1.0351,-1.0363,-1.0302,-1.0303,-1.0303,0,-0.981,-0.9839,-0.9879,-0.9901,-0.9921,-0.9956,-0.998,-0.9999,-1.0023,-1.0064,-1.0087,-1.0127,-1.0161,-1.0225,-1.025,-1.0289,-1.0292,-1.0317,-1.0298,-1.0293,-1.0293,-1.0291,-1.0295,-1.0321,-1.0321,-1.0322,-1.0322,0,-0.9862,-0.9871,-0.9905,-0.9943,-0.9971,-1.0001,-1.0032,-1.0049,-1.0073,-1.0101,-1.0142,-1.0168,-1.0219,-1.026,-1.0301,-1.0321,-1.0326,-1.0328,-1.0336,-1.0333,-1.0325,-1.033,-1.0256,-1.0326,-1.0326,-1.0325,-1.0325,-1.0325,-0.9897,-0.9924,-0.9957,-0.9994,-1.0019,-1.0048,-1.0076,-1.0097,-1.0132,-1.0175,-1.0184,-1.0228,-1.0261,-1.0317,-1.0339,-1.0374,-1.0369,-1.0381,-1.0384,-1.0386,-1.0388,-1.0319,-1.0381,-1.0381,-1.0381,-1.0381,-1.0381,0,-0.9951,-0.9972,-1.0007,-1.0049,-1.0079,-1.0081,-1.0115,-1.014,-1.0178,-1.0209,-1.0242,-1.0289,-1.0329,-1.0358,-1.0399,-1.0421,-1.0425,-1.0432,-1.043,-1.0435,-1.039,-1.0379,-1.0428,-1.0428,-1.0428,-1.0428,-1.0428,-1.0428,-0.9982,-1.0027,-1.0041,-1.0099,-1.0121,-1.0163,-1.0183,-1.0209,-1.0234,-1.0287,-1.032,-1.0338,-1.0369,-1.0412,-1.0449,-1.0457,-1.0472,-1.0478,-1.0486,-1.0443,-1.0438,-1.0434,-1.0423,-1.0481,-1.0481,-1.0529,-1.053,-1.053]}]]